Hourly Data Report for September 27, 2015

All times are specified in Local Standard Time (LST). Add 1 hour to adjust for Daylight Saving Time where and when it is observed.

TORONTO INTL A
ONTARIO

43°40'36.000" N
79°37'50.000" W
173.40 m
6158731
71624
YYZ

Download Data

Hourly Data (September 2015)
Hourly Data Report for September 27, 2015
Temp Definition
°C
Dew Point Temp Definition
°C
Rel Hum Definition
%
Wind Dir Definition
10's deg

Wind Spd Definition
km/h
Visibility Definition
km
Stn Press Definition
kPa
Hmdx Definition


Wind Chill Definition


Weather Definition


TIME
00:00 Legend Double Dagger 15.6 13.8 89 11 5 24.1 100.67     LegendNANA
01:00 Legend Double Dagger 15.2 13.8 91 11 7 24.1 100.65     Mainly Clear
02:00 Legend Double Dagger 15.1 13.8 92 11 5 24.1 100.61     LegendNANA
03:00 Legend Double Dagger 14.2 13.4 95 36 1 24.1 100.59     LegendNANA
04:00 Legend Double Dagger 13.4 12.8 96 36 2 19.3 100.57     Mainly Clear
05:00 Legend Double Dagger 14.0 13.4 96 15 4 6.4 100.54     LegendNANA
06:00 Legend Double Dagger 10.9 10.1 95 36 3 8.1 100.57     Fog
07:00 Legend Double Dagger 11.7 10.9 95 3 6 6.4 100.62     Fog
08:00 Legend Double Dagger 14.5 13.7 95 36 2 24.1 100.61     LegendNANA
09:00 Legend Double Dagger 18.3 12.6 69 18 14 24.1 100.57     LegendNANA
10:00 Legend Double Dagger 19.1 11.7 62 16 15 24.1 100.53     Mainly Clear
11:00 Legend Double Dagger 19.0 11.7 62 16 16 24.1 100.52     LegendNANA
12:00 Legend Double Dagger 20.3 12.6 61 14 12 24.1 100.43     LegendNANA
13:00 Legend Double Dagger 20.2 11.5 57 15 16 24.1 100.35     Mostly Cloudy
14:00 Legend Double Dagger 20.4 11.5 56 13 16 24.1 100.26     LegendNANA
15:00 Legend Double Dagger 21.0 12.3 57 11 15 24.1 100.17     LegendNANA
16:00 Legend Double Dagger 20.3 12.6 61 13 16 24.1 100.11     Mainly Clear
17:00 Legend Double Dagger 19.8 12.9 64 12 18 24.1 100.08     LegendNANA
18:00 Legend Double Dagger 18.5 13.4 72 12 13 24.1 100.08     LegendNANA
19:00 Legend Double Dagger 18.0 14.2 78 13 10 24.1 100.08     Mostly Cloudy
20:00 Legend Double Dagger 18.1 14.5 79 14 7 24.1 100.08     LegendNANA
21:00 Legend Double Dagger 18.5 14.7 78 15 7 24.1 100.05     LegendNANA
22:00 Legend Double Dagger 18.5 15.4 82 14 7 24.1 100.02     Cloudy
23:00 Legend Double Dagger 18.6 15.5 82 16 5 24.1 100.00     LegendNANA

Notes on Data Quality.

Legend

  • E = Estimated
  • M = Missing
  • NA = Not Available
  • ‡ = Partner data that is not subject to review by the National Climate Archives
Date modified: